Погода в Озёрном

Россия / Свердловская область     57°18′03″N   61°12′32″E
темп.,
°C
ветер,
м/с
пор.,
м/с
влажн.,
%
обл.,
%
осадки,
мм/ч
давл.,
гПа
погр.,
м
24 июня, чт
чт2423:00+11ссв226852 0.0 102010
02:00+8ссв117430 0.0 102010
05:00+8зсз117530 0.0 102014
08:00+17з1250100 0.0 1019377
11:00+21зсз2439100 0.0 10181468
14:00+20с1351100 0.0 1017143
17:00+24ссз044051 0.0 1015930
20:00+21ю2360100 0.0 101370
25 июня, пт
пт2523:00+16всв2479100 0.2 1013125
02:00+15зюз2395100 0.7 101290
05:00+16сз249784 0.7 1011116
08:00+18св1186100 0.0 1011266
11:00+23в225421 0.0 1011882
14:00+25всв2247100 0.0 10111813
17:00+24всв1153100 0.0 10111048
20:00+23юв236822 0.0 1011132
26 июня, сб
сб2623:00+17юв2486100 0.0 101263
02:00+17ююв2488100 0.0 101188
05:00+17ю2892100 0.0 1011209
08:00+19ю368272 0.1 1010334
11:00+24юз237486 1.8 1009852
14:00+23св227796 3.2 1009411
17:00+25св235838 3.3 1008681
20:00+22сз118222 1.1 100817
27 июня, вс
вс2723:00+17сз229418 1.4 100916
02:00+17сз24973 0.0 100975
05:00+16ссз389996 0.0 1010313
08:00+17с368549 0.0 1011497
11:00+22ссз3458100 0.0 10111110
14:00+23ссз555494 0.1 10121661
17:00+24ссз464890 0.1 10121979
20:00+21ссв376296 0.0 1013515
28 июня, пн
пн2823:00+15ссв22930 0.0 101525
02:00+13ссв25983 0.0 1016118
05:00+12ссв249817 0.0 1017100
08:00+17св23737 0.0 1018583
11:00+21всв235210 0.0 10181348
14:00+25в224115 0.0 10171905
17:00+25вюв223919 0.0 10172075
20:00+21ююв476032 0.0 1018489